Погода в Кашаре

Россия / Курская область     51°50′24″N   35°05′08″E
темп.,
°C
ветер,
м/с
пор.,
м/с
влажн.,
%
обл.,
%
осадки,
мм/ч
давл.,
гПа
погр.,
м
27 октября, ср
ср2700:00+2ююз5136361 0.0 1027288
03:00+2ююз5136649 0.0 1026277
06:00+2ююз5137118 0.0 1025298
09:00+3ююз614695 0.0 1024399
12:00+8юз711640 0.0 1023733
15:00+10зюз79595 0.0 10211005
18:00+8зюз4965100 0.0 1022460
21:00+7з377076 0.0 1022282
28 октября, чт
чт2800:00+4зюз368997 0.0 1023116
03:00+4зюз3795100 0.0 1022141
06:00+5юз51289100 0.0 1020311
09:00+6юз61489100 0.7 1019494
12:00+7зюз61189100 1.1 1019495
15:00+7з51094100 1.7 1019410
18:00+8зсз41194100 0.1 1020506
21:00+8зсз3693100 0.1 1021128
29 октября, пт
пт2900:00+7с49915 0.0 1023217
03:00+4с35885 0.0 102573
06:00+3с36915 0.0 102793
09:00+5св24921 0.0 1028131
12:00+9всв337018 0.0 1029606
15:00+10вюв11645 0.0 1029706
18:00+7св11800 0.0 103010
21:00+6вюв22845 0.0 103110
30 октября, сб
сб3000:00+5ююв22885 0.0 103222
03:00+4ю22910 0.0 103226
06:00+3ю33915 0.0 103232
09:00+4ююв24885 0.0 1033133
12:00+9ю34695 0.0 1033443
15:00+11ю35625 0.0 1032664
18:00+8ю33795 0.0 103228
21:00+6ю33832 0.0 103240
31 октября, вс
вс3100:00+5ю33840 0.0 103340
03:00+4ю23820 0.0 103323
06:00+4ююв33850 0.0 103226
09:00+5ююв24790 0.0 1032113
12:00+10ююв45600 0.0 1031444
15:00+12ююв45540 0.0 1029719
18:00+8юв33710 0.0 102834
21:00+6юв37760 0.0 1028105